Location: B�rgermoos
(47.6500°N, 9.0667°E)
Time: 14:48:48
(UTC+00:00)

Vanguard 2 Rocket - Pass Details

Date: 10 August 2021
Orbit: 555 x 3324 km, 32.9° (Epoch: 18 September)

Event Time Altitude Azimuth Distance (km) Brightness Sun altitude
Rises 03:31:18 0° 224° (SW) 4,721 - -7.0°
Exits shadow 03:33:42 - 217° (SW) 3,964 9.6 -6.6°
Reaches altitude 10° 03:36:33 10° 204° (SSW) 3,135 9.2 -6.2°
Maximum altitude 03:40:16 15° 173° (S) 2,400 8.8 -5.7°
Drops below altitude 10° 03:43:17 10° 140° (SE) 2,412 9.2 -5.3°
Sets 03:46:26 0° 115° (ESE) 3,054 10.2 -4.8°
